GW0200 Weather Reports


Display with metric or nautical units.
time (UTC)temp
F
wind
direction
speed
MPH
gust
MPH
rain 1hr
in
rain 24hr
in
rain mn
in
humidity
%
barometer
mb
20260506051356 45 321 0.0 3.0 0.05 1.20 0.06 95 1003.2
20260506050619 45 321 0.0 3.0 0.04 1.19 0.05 95 1003.2
20260506050114 46 289 1.0 3.0 0.05 1.19 0.05 95 1003.2
20260506045103 46 320 1.0 5.0 0.05 1.18 0.04 95 1003.4
20260506044555 46 0 0.0 4.0 0.05 1.18 0.04 95 1003.4
20260506044050 46 329 1.0 4.0 0.05 1.17 0.03 95 1003.4
20260506044045 46 329 1.0 4.0 0.06 1.17 0.03 95 1003.5
20260506043038 46 341 1.0 3.0 0.06 1.17 0.03 95 1003.4
20260506043033 46 5 1.0 3.0 0.06 1.16 0.03 95 1003.5
20260506042025 46 355 0.0 2.0 0.07 1.16 0.02 95 1003.6
20260506041520 47 53 0.0 3.0 0.08 1.16 0.02 95 1003.7
20260506041014 47 53 0.0 3.0 0.08 1.15 0.01 95 1003.8
20260506040508 47 300 0.0 4.0 0.09 1.15 0.01 95 1003.8
20260506040004 47 349 0.0 3.0 0.10 1.14 0.00 95 1003.7
20260506035959 47 341 1.0 3.0 0.12 1.14 1.14 95 1003.9
20260506035220 47 355 1.0 3.0 0.12 1.13 1.13 95 1003.9
20260506034443 47 297 1.0 3.0 0.12 1.12 1.12 95 1003.9
20260506033937 47 322 1.0 4.0 0.14 1.12 1.12 95 1004.0
20260506033432 47 297 1.0 4.0 0.14 1.11 1.11 95 1004.1
20260506032926 48 292 0.0 3.0 0.15 1.11 1.11 96 1004.0
20260506032420 48 342 0.0 2.0 0.16 1.10 1.10 96 1004.0
20260506031914 48 342 0.0 2.0 0.16 1.09 1.09 96 1003.9
20260506031408 48 28 1.0 3.0 0.17 1.08 1.08 96 1003.9
20260506030902 48 350 1.0 3.0 0.18 1.07 1.07 95 1004.1
20260506030356 48 342 1.0 2.0 0.17 1.05 1.05 95 1003.9
20260506025851 48 331 1.0 4.0 0.16 1.03 1.04 95 1003.9
20260506025845 48 355 1.0 4.0 0.16 1.02 1.02 95 1004.0
20260506024837 48 313 1.0 3.0 0.17 1.01 1.01 95 1003.6
20260506024602 48 300 0.0 2.0 0.17 1.00 1.00 95 1003.6
20260506023826 48 300 0.0 3.0 0.15 0.98 0.98 95 1003.6
20260506023552 48 345 0.0 3.0 0.14 0.97 0.97 95 1003.5
20260506022813 48 323 0.0 3.0 0.14 0.96 0.96 95 1003.4
20260506022309 48 323 0.0 3.0 0.12 0.94 0.94 95 1003.5
20260506022032 48 306 0.0 0.0 0.11 0.93 0.93 96 1003.5
20260506021255 48 306 0.0 0.0 0.09 0.91 0.91 95 1003.3
20260506020749 48 305 0.0 0.0 0.08 0.89 0.89 95 1003.5
20260506020243 49 305 0.0 1.0 0.08 0.88 0.88 95 1003.5
20260506015740 49 306 0.0 2.0 0.08 0.87 0.87 95 1003.5
20260506015232 49 305 0.0 2.0 0.09 0.86 0.86 96 1003.6
20260506014726 48 306 0.0 1.0 0.08 0.84 0.84 95 1003.5
20260506014221 48 306 0.0 0.0 0.08 0.83 0.83 95 1003.4
20260506013714 48 306 0.0 0.0 0.09 0.83 0.83 95 1003.4
20260506013207 48 306 0.0 0.0 0.08 0.82 0.82 95 1003.3
20260506012932 48 306 0.0 1.0 0.09 0.82 0.82 95 1003.3
20260506012156 48 305 0.0 1.0 0.09 0.82 0.82 95 1003.3
20260506011651 48 305 0.0 1.0 0.09 0.82 0.82 95 1003.1
20260506011144 48 305 0.0 1.0 0.08 0.81 0.81 95 1003.2
20260506010639 48 5 0.0 1.0 0.08 0.81 0.81 95 1003.1
20260506010634 48 5 0.0 1.0 0.07 0.80 0.80 95 1003.3
20260506005625 48 5 0.0 1.0 0.06 0.79 0.79 95 1003.3
20260506005119 48 5 0.0 2.0 0.04 0.77 0.77 95 1003.3
20260506004614 48 5 0.0 2.0 0.03 0.76 0.76 95 1003.0
20260506004108 48 326 0.0 1.0 0.03 0.75 0.75 95 1002.9
20260506004059 48 326 0.0 1.0 0.02 0.73 0.73 95 1002.9
20260506003603 48 326 0.0 1.0 0.03 0.74 0.74 95 1002.8
20260506002550 48 326 0.0 1.0 0.03 0.73 0.73 95 1003.0
20260506002311 48 326 0.0 1.0 0.05 0.73 0.73 95 1002.9
20260506002145 48 326 0.0 1.0 0.04 0.73 0.73 95 1002.9
20260506001031 48 326 0.0 1.0 0.06 0.73 0.73 95 1002.8
20260506000527 48 326 0.0 2.0 0.10 0.73 0.73 95 1002.6
20260506000026 48 326 0.0 2.0 0.11 0.73 0.73 95 1002.8
20260505235532 48 338 0.0 2.0 0.12 0.73 0.73 95 1002.6
20260505235028 48 278 0.0 2.0 0.12 0.73 0.73 95 1002.6
20260505234528 48 15 0.0 2.0 0.12 0.72 0.73 95 1003.1
20260505234028 48 281 0.0 2.0 0.13 0.72 0.72 95 1003.2
20260505233527 48 281 0.0 2.0 0.13 0.71 0.71 95 1003.3
20260505233024 48 355 0.0 3.0 0.14 0.71 0.71 95 1003.2
20260505232524 48 355 1.0 3.0 0.14 0.70 0.70 94 1003.3
20260505232025 48 339 1.0 4.0 0.16 0.69 0.69 94 1003.1
20260505231756 48 313 0.0 4.0 0.16 0.68 0.69 94 1003.3
20260505231022 48 325 0.0 2.0 0.15 0.67 0.67 94 1003.5
20260505230519 48 278 1.0 3.0 0.13 0.63 0.64 94 1003.5
20260505230017 48 329 1.0 4.0 0.13 0.62 0.62 94 1003.1
20260505225525 48 341 1.0 4.0 0.17 0.61 0.61 94 1003.0
20260505225518 48 312 1.0 4.0 0.14 0.61 0.61 94 1003.0
20260505224517 48 277 1.0 4.0 0.17 0.60 0.60 94 1003.3
20260505224014 48 347 1.0 4.0 0.16 0.59 0.59 94 1003.4
20260505223749 48 314 1.0 4.0 0.16 0.58 0.58 94 1003.3
20260505223010 48 327 1.0 4.0 0.17 0.57 0.57 94 1003.1
20260505222504 48 351 1.0 4.0 0.19 0.56 0.56 94 1003.2
20260505221958 48 326 1.0 4.0 0.20 0.53 0.53 93 1003.1
20260505221454 49 344 1.0 4.0 0.22 0.52 0.52 93 1003.3
20260505220954 49 273 1.0 6.0 0.24 0.52 0.52 93 1003.2
20260505220455 49 321 2.0 6.0 0.26 0.50 0.50 93 1003.1
20260505215952 49 351 1.0 5.0 0.26 0.49 0.49 93 1002.9
20260505215450 49 296 1.0 3.0 0.23 0.46 0.47 93 1003.0
20260505214957 49 21 1.0 3.0 0.22 0.44 0.44 93 1002.8
20260505214951 50 319 2.0 5.0 0.23 0.43 0.43 93 1002.8
20260505214224 50 349 2.0 7.0 0.25 0.42 0.42 93 1003.1
20260505214219 50 28 1.0 5.0 0.24 0.42 0.43 93 1003.0
20260505212948 50 343 2.0 8.0 0.27 0.40 0.40 93 1003.1
20260505212449 50 32 3.0 8.0 0.27 0.37 0.37 92 1003.2
20260505212220 51 347 3.0 12.0 0.22 0.32 0.33 92 1003.1
20260505211442 51 342 4.0 12.0 0.21 0.30 0.30 91 1003.0
20260505210950 53 312 3.0 10.0 0.16 0.24 0.25 91 1002.9
20260505210944 52 24 4.0 11.0 0.19 0.28 0.29 91 1002.6
20260505210214 54 290 3.0 9.0 0.16 0.23 0.23 92 1002.5
20260505205443 55 11 2.0 9.0 0.17 0.23 0.23 92 1002.5
20260505204944 55 273 1.0 4.0 0.17 0.22 0.22 92 1002.5
20260505204445 55 348 1.0 4.0 0.16 0.20 0.20 93 1002.6
20260505203944 55 322 1.0 3.0 0.15 0.18 0.19 92 1002.4
20260505203445 55 296 1.0 3.0 0.14 0.17 0.17 92 1002.5
20260505202939 55 338 1.0 3.0 0.11 0.13 0.13 92 1002.8
20260505202438 55 245 0.0 3.0 0.09 0.10 0.11 92 1002.5
20260505201939 55 333 0.0 3.0 0.09 0.10 0.10 91 1002.4
20260505201439 55 252 0.0 3.0 0.09 0.09 0.09 91 1002.5
20260505200938 55 80 0.0 2.0 0.09 0.09 0.09 91 1002.4
20260505200440 55 55 1.0 2.0 0.08 0.08 0.08 91 1002.6
20260505195938 55 302 0.0 2.0 0.07 0.07 0.07 90 1002.6
20260505195438 55 287 1.0 4.0 0.06 0.06 0.06 89 1002.8
20260505194939 56 252 2.0 4.0 0.05 0.05 0.05 89 1002.8
20260505194434 56 305 2.0 5.0 0.04 0.04 0.04 88 1002.9
20260505193935 56 313 2.0 6.0 0.03 0.03 0.03 87 1002.9
20260505193436 57 209 2.0 6.0 0.02 0.02 0.03 86 1002.6
20260505192935 57 323 2.0 6.0 0.02 0.02 0.02 86 1002.8
20260505192705 57 333 1.0 6.0 0.01 0.01 0.01 85 1002.8
20260505192205 58 309 1.0 4.0 0.01 0.01 0.01 85 1002.8
20260505191706 58 285 1.0 4.0 0.00 0.00 0.01 84 1002.8
20260505190941 58 342 2.0 4.0 0.00 0.00 0.00 83 1002.8
20260505190436 59 335 2.0 5.0 0.00 0.00 0.00 82 1002.8
20260505185935 59 269 2.0 12.0 0.00 0.00 0.00 81 1002.8
20260505185436 59 290 3.0 12.0 0.00 0.00 0.00 80 1002.8
20260505184934 60 323 4.0 11.0 0.00 0.00 0.00 78 1002.8
20260505184433 61 281 3.0 11.0 0.00 0.00 0.00 77 1002.8
20260505183930 62 323 3.0 8.0 0.00 0.00 0.00 76 1002.9
20260505183431 62 264 2.0 7.0 0.00 0.00 0.00 76 1002.9
20260505182930 62 344 2.0 4.0 0.00 0.00 0.00 76 1002.8
20260505182432 62 355 2.0 4.0 0.00 0.00 0.00 76 1002.8
20260505181931 62 273 2.0 6.0 0.00 0.00 0.00 76 1002.8
20260505181702 62 297 2.0 6.0 0.00 0.00 0.00 76 1002.6
20260505180930 62 290 2.0 5.0 0.00 0.00 0.00 76 1002.5
20260505180430 62 250 3.0 9.0 0.00 0.00 0.00 75 1002.6
20260505175932 62 318 3.0 10.0 0.00 0.00 0.00 75 1002.5
20260505175438 62 166 2.0 6.0 0.00 0.00 0.00 75 1002.5
20260505175431 62 157 3.0 10.0 0.00 0.00 0.00 75 1002.6
20260505174701 62 275 2.0 6.0 0.00 0.00 0.00 75 1002.5
20260505174157 62 292 3.0 10.0 0.00 0.00 0.00 76 1002.4
20260505173426 62 11 3.0 10.0 0.00 0.00 0.00 75 1002.4
20260505173159 61 333 3.0 8.0 0.00 0.00 0.00 76 1002.4
20260505172427 61 273 3.0 8.0 0.00 0.00 0.00 75 1002.3
20260505171927 61 22 3.0 8.0 0.00 0.00 0.00 75 1002.4
20260505171425 61 315 3.0 8.0 0.00 0.00 0.00 74 1002.4
20260505170922 61 344 2.0 8.0 0.00 0.00 0.00 75 1002.3
20260505170424 61 325 3.0 9.0 0.00 0.00 0.00 74 1002.3
20260505170155 62 215 3.0 9.0 0.00 0.00 0.00 74 1002.3
20260505165651 62 146 3.0 10.0 0.00 0.00 0.00 73 1002.3
20260505164920 62 286 3.0 10.0 0.00 0.00 0.00 72 1002.3
20260505164422 63 318 3.0 9.0 0.00 0.00 0.00 71 1002.3
20260505163920 63 325 3.0 10.0 0.00 0.00 0.00 69 1002.3
20260505163420 65 336 4.0 14.0 0.00 0.00 0.00 66 1002.2
20260505162920 66 323 4.0 14.0 0.00 0.00 0.00 63 1002.2
20260505162421 67 250 3.0 10.0 0.00 0.00 0.00 60 1002.0
20260505162154 68 126 5.0 15.0 0.00 0.00 0.00 60 1002.0
20260505161415 68 25 6.0 15.0 0.00 0.00 0.00 58 1001.8
20260505160910 69 173 5.0 16.0 0.00 0.00 0.00 61 1001.9
20260505160634 68 164 5.0 16.0 0.00 0.00 0.00 61 1001.8
20260505153327 67 282 4.0 14.0 0.00 0.00 0.00 61 1001.2
20260505152822 67 163 4.0 12.0 0.00 0.00 0.00 64 1001.0
20260505152315 66 215 4.0 12.0 0.00 0.00 0.00 63 1001.1
20260505151810 66 196 4.0 15.0 0.00 0.00 0.00 64 1001.1
20260505151305 65 323 4.0 12.0 0.00 0.00 0.00 65 1001.2
20260505150758 65 172 4.0 16.0 0.00 0.00 0.00 66 1001.2
20260505150252 65 166 4.0 16.0 0.00 0.00 0.00 67 1001.2
20260505140646 65 191 4.0 13.0 0.00 0.00 0.00 68 1000.6
20260505140140 64 136 4.0 13.0 0.00 0.00 0.00 70 1000.8
20260505124743 61 202 3.0 9.0 0.00 0.00 0.00 73 1000.9
20260505124003 61 157 3.0 9.0 0.00 0.00 0.00 73 1000.8
20260505123459 61 186 3.0 12.0 0.00 0.00 0.00 73 1000.7
20260505123223 61 268 3.0 12.0 0.00 0.00 0.00 72 1000.6
20260505122446 61 171 3.0 9.0 0.00 0.00 0.00 72 1000.6
20260505121940 61 248 3.0 9.0 0.00 0.00 0.00 72 1000.4
20260505121704 61 154 3.0 9.0 0.00 0.00 0.00 72 1000.2
20260505120928 62 215 3.0 13.0 0.00 0.00 0.00 72 1000.1
20260505120422 62 263 3.0 13.0 0.00 0.00 0.00 71 1000.0
20260505115916 62 182 3.0 9.0 0.00 0.00 0.00 71 999.8
20260505115410 62 153 3.0 9.0 0.00 0.00 0.00 70 999.9
20260505114903 62 237 4.0 9.0 0.00 0.00 0.00 69 999.9
20260505114359 63 208 5.0 13.0 0.00 0.00 0.00 67 999.9
20260505113857 63 195 6.0 16.0 0.00 0.00 0.00 66 1000.0
20260505113629 63 211 5.0 16.0 0.00 0.00 0.00 65 999.9
20260505113359 63 211 4.0 12.0 0.00 0.00 0.00 65 999.7
20260505112355 63 143 4.0 12.0 0.00 0.00 0.00 65 999.8
20260505111857 63 210 4.0 12.0 0.00 0.00 0.00 65 999.7
20260505111353 63 209 4.0 12.0 0.00 0.00 0.00 66 999.7
20260505110853 63 194 4.0 10.0 0.00 0.00 0.00 66 999.6
20260505110623 64 160 4.0 11.0 0.00 0.00 0.00 66 999.6
20260505101851 64 248 4.0 17.0 0.00 0.00 0.00 65 999.1
20260505101351 64 82 4.0 17.0 0.00 0.00 0.00 64 998.9
20260505100850 65 259 4.0 13.0 0.00 0.00 0.00 64 998.7
20260505100350 65 159 4.0 19.0 0.00 0.00 0.00 64 998.8
20260505095850 65 234 4.0 19.0 0.00 0.00 0.00 63 998.8
20260505095349 65 158 3.0 12.0 0.00 0.00 0.00 63 998.6
20260505094850 65 192 3.0 12.0 0.00 0.00 0.00 63 998.4
20260505094350 65 148 3.0 13.0 0.00 0.00 0.00 63 998.4
20260505093850 65 157 5.0 18.0 0.00 0.00 0.00 62 998.4
20260505093620 65 223 5.0 18.0 0.00 0.00 0.00 62 998.2
20260505092850 65 164 4.0 12.0 0.00 0.00 0.00 62 998.2
20260505092623 65 153 5.0 18.0 0.00 0.00 0.00 62 998.0
20260505091851 65 184 5.0 18.0 0.00 0.00 0.00 62 998.1
20260505091619 65 162 4.0 11.0 0.00 0.00 0.00 62 998.1
20260505090845 66 330 4.0 11.0 0.00 0.00 0.00 62 998.2
20260505090347 66 202 4.0 14.0 0.00 0.00 0.00 62 998.1
20260505085845 66 268 4.0 14.0 0.00 0.00 0.00 62 998.1
20260505085347 66 297 4.0 11.0 0.00 0.00 0.00 62 998.1
20260505084847 66 171 5.0 17.0 0.00 0.00 0.00 61 998.0
20260505084346 66 165 6.0 17.0 0.00 0.00 0.00 61 998.0
20260505084118 66 289 5.0 16.0 0.00 0.00 0.00 61 997.9
20260505083619 66 236 5.0 16.0 0.00 0.00 0.00 62 998.1
20260505082843 66 200 6.0 15.0 0.00 0.00 0.00 61 998.2
20260505082342 66 259 5.0 15.0 0.00 0.00 0.00 62 998.1
20260505081842 66 261 5.0 13.0 0.00 0.00 0.00 62 998.1
20260505081613 66 327 4.0 11.0 0.00 0.00 0.00 63 998.1
20260505080842 65 171 4.0 17.0 0.00 0.00 0.00 63 997.9
20260505080341 65 221 5.0 17.0 0.00 0.00 0.00 64 997.9
20260505075843 65 196 4.0 11.0 0.00 0.00 0.00 64 997.8
20260505075615 65 346 4.0 11.0 0.00 0.00 0.00 65 997.8
20260505074842 65 174 3.0 9.0 0.00 0.00 0.00 65 997.8
20260505074337 65 257 3.0 10.0 0.00 0.00 0.00 65 997.9
20260505073838 65 190 3.0 10.0 0.00 0.00 0.00 65 997.7
20260505073340 65 155 3.0 8.0 0.00 0.00 0.00 65 997.7
20260505073108 65 110 3.0 8.0 0.00 0.00 0.00 66 997.7
20260505072338 65 89 4.0 12.0 0.00 0.00 0.00 65 997.6
20260505071837 65 150 4.0 12.0 0.00 0.00 0.00 65 997.6
20260505071338 65 239 4.0 11.0 0.00 0.00 0.00 65 997.8
20260505070838 66 161 4.0 11.0 0.00 0.00 0.00 65 997.8
20260505070338 66 202 4.0 10.0 0.00 0.00 0.00 64 997.7
20260505065833 65 150 3.0 10.0 0.00 0.00 0.00 64 997.7
20260505065333 65 172 2.0 9.0 0.00 0.00 0.00 65 997.8
20260505064842 65 74 2.0 9.0 0.00 0.00 0.00 64 997.8
20260505064835 65 248 2.0 8.0 0.00 0.00 0.00 65 997.8
20260505064456 66 57 3.0 9.0 0.00 0.00 0.00 65 997.8
20260505063335 66 220 3.0 8.0 0.00 0.00 0.00 64 997.8
20260505062832 66 238 4.0 12.0 0.00 0.00 0.00 64 997.9
20260505062331 66 138 4.0 12.0 0.00 0.00 0.00 64 998.0
20260505062102 66 167 3.0 11.0 0.00 0.00 0.00 64 998.1
20260505061332 66 261 4.0 11.0 0.00 0.00 0.00 64 998.1
20260505060829 66 202 4.0 10.0 0.00 0.00 0.00 64 998.2
20260505060330 66 185 3.0 10.0 0.00 0.00 0.00 64 998.2
20260505055830 66 188 3.0 14.0 0.00 0.00 0.00 65 998.3
20260505055558 66 196 3.0 14.0 0.00 0.00 0.00 65 998.3
20260505054825 66 208 3.0 8.0 0.00 0.00 0.00 64 998.4